Terminal Aerodrome Forecast
Issued by NWS Charleston, WV

Current Version | Previous Version | Text Only | Print | Product List | Glossary Off
Versions: 1 2 3 4 5 6 7 8 9 10 11 12 13 14 15 16 17 18 19 20 21 22 23 24 25 26 27 28 29

000
FTUS41 KRLX 190800 AAA
TAFHTS
TAF AMD
KHTS 190830Z 1908/2006 30006KT 6SM BR OVC040
     FM191200 VRB03KT 4SM BR SCT015
     FM192000 VRB03KT P6SM FEW060=

USA.gov is the U.S. government's official web portal to all federal, state and local government web resources and services.